Location: Central Coast
(33.3208°S, 151.2336°E)
Time: 10:55:21
(UTC+10:00)

Vanguard 2 - All Passes

Search period start: 18 August 2018 00:00
Search period end: 28 August 2018 00:00
Orbit: 554 x 2938 km, 32.9° (Epoch: 17 August)

Date Brightness Start Highest point End Pass type
(mag) Time Alt. Az. Time Alt. Az. Time Alt. Az.
18 Aug - 01:52:24 10° WSW 02:09:26 67° NNW 02:20:52 10° NE visible
18 Aug - 04:07:38 10° W 04:18:52 28° NW 04:26:45 10° N visible
18 Aug - 17:29:38 10° N 17:38:55 23° NE 17:50:35 10° E visible
18 Aug - 19:34:53 10° NW 19:48:56 58° NNE 20:06:20 10° ESE visible
18 Aug - 21:44:41 10° WNW 22:01:44 85° N 22:18:53 10° E visible
18 Aug - 23:57:09 10° W 00:15:27 86° N 00:29:52 10° ENE visible
19 Aug - 02:10:58 10° WSW 02:27:27 57° NNW 02:38:36 10° NE visible
19 Aug - 04:27:19 10° W 04:36:17 20° NW 04:43:05 10° N visible
19 Aug - 17:45:59 10° NNW 17:56:25 31° NE 18:10:11 10° E visible
19 Aug - 19:52:36 10° NW 20:07:00 67° NNE 20:24:50 10° ESE visible
19 Aug - 22:03:00 10° W 22:20:14 88° N 22:37:15 10° E visible
20 Aug - 00:15:38 10° W 00:33:52 81° NNW 00:48:02 10° ENE visible
20 Aug - 02:29:37 10° WSW 02:45:17 47° NW 02:56:05 10° NE visible
20 Aug - 04:48:20 10° WNW 04:53:37 13° NW 04:58:07 10° NNW visible
20 Aug - 18:02:52 10° NNW 18:14:01 40° NE 18:29:16 10° E visible
20 Aug - 20:10:30 10° WNW 20:25:13 75° NNE 20:43:18 10° E visible
20 Aug - 22:21:22 10° W 22:38:47 89° N 22:55:37 10° E visible
21 Aug - 00:34:06 10° W 00:52:10 74° NNW 01:06:04 10° ENE visible
21 Aug - 02:48:28 10° W 03:02:58 38° NW 03:13:16 10° NNE visible
21 Aug - 16:17:06 10° NNE 16:23:01 16° NE 16:30:12 10° E daylight
21 Aug - 18:20:07 10° NW 18:31:45 50° NE 18:48:04 10° ESE visible
21 Aug - 20:28:34 10° WNW 20:43:33 82° NNE 21:01:45 10° E visible
21 Aug - 22:39:46 10° W 22:57:19 88° N 23:13:58 10° E visible
22 Aug - 00:52:35 10° WSW 01:10:20 65° NNW 01:23:55 10° NE visible
22 Aug - 03:07:39 10° W 03:20:31 29° NW 03:30:05 10° N visible
22 Aug - 16:32:38 10° N 16:40:23 23° NE 16:50:42 10° E daylight
22 Aug - 18:37:39 10° NW 18:49:38 60° NNE 19:06:42 10° ESE visible
22 Aug - 20:46:45 10° WNW 21:02:00 86° N 21:20:12 10° E visible
22 Aug - 22:58:10 10° W 23:15:49 84° NNW 23:32:14 10° ENE visible
23 Aug - 01:11:07 10° WSW 01:28:21 56° NNW 01:41:35 10° NE visible
23 Aug - 03:27:27 10° W 03:37:57 21° NW 03:46:17 10° N visible
23 Aug - 16:49:08 10° NNW 16:57:49 31° NE 17:10:12 10° E daylight
23 Aug - 18:55:25 10° WNW 19:07:41 69° NNE 19:25:13 10° ESE visible
23 Aug - 21:05:01 10° W 21:20:30 89° N 21:38:39 10° E visible
23 Aug - 23:16:34 10° W 23:34:14 79° NNW 23:50:24 10° ENE visible
24 Aug - 01:29:47 10° W 01:46:13 46° NW 01:59:00 10° NNE visible
24 Aug - 03:48:33 10° WNW 03:55:21 14° NW 04:01:14 10° NNW visible
24 Aug - 17:06:08 10° NNW 17:15:22 40° NE 17:29:14 10° E daylight
24 Aug - 19:13:20 10° WNW 19:25:53 77° NNE 19:43:44 10° E visible
24 Aug - 21:23:19 10° W 21:39:03 89° N 21:57:06 10° E visible
24 Aug - 23:34:57 10° WSW 23:52:33 71° NNW 00:08:26 10° ENE visible
25 Aug - 01:48:39 10° W 02:03:57 37° NW 02:16:05 10° NNE visible
25 Aug - 15:20:41 10° NNE 15:25:04 14° NE 15:30:24 10° E daylight
25 Aug - 17:23:28 10° NW 17:33:05 51° NNE 17:48:00 10° ESE daylight
25 Aug - 19:31:25 10° WNW 19:44:13 83° NNE 20:02:16 10° E visible
25 Aug - 21:41:38 10° W 21:57:33 86° N 22:15:30 10° ENE visible
25 Aug - 23:53:23 10° WSW 00:10:43 63° NNW 00:26:15 10° NE visible
26 Aug - 02:07:54 10° W 02:21:34 29° NW 02:32:44 10° N visible
26 Aug - 15:36:15 10° N 15:42:25 21° NE 15:50:51 10° E daylight
26 Aug - 17:41:05 10° NW 17:50:58 61° NNE 18:06:37 10° ESE visible
26 Aug - 19:49:33 10° W 20:02:37 87° N 20:20:47 10° E visible
26 Aug - 21:59:56 10° W 22:16:02 82° NNW 22:33:49 10° ENE visible
27 Aug - 00:11:53 10° WSW 00:28:46 54° NNW 00:43:50 10° NE visible
27 Aug - 02:27:50 10° W 02:39:07 21° NW 02:48:44 10° N visible
27 Aug - 15:52:50 10° NNW 15:59:51 30° NE 16:10:16 10° E daylight
27 Aug - 17:58:52 10° WNW 18:09:00 71° NNE 18:25:11 10° E visible
27 Aug - 20:07:45 10° W 20:21:06 89° N 20:39:20 10° E visible
27 Aug - 22:18:15 10° W 22:34:25 76° NNW 22:51:59 10° ENE visible
